| time (UTC) | temp F | wind direction | speed MPH | gust MPH | rain 1hr in | rain 24hr in | rain mn in | humidity % | barometer mb |
| 20260831141605 | 82 | 0 | 0.0 | 0.0 | 0.00 | 0.00 | 0.00 | 47 | 1016.1 |
| 20260831134612 | 79 | 0 | 0.0 | 0.0 | 0.00 | 0.00 | 0.00 | 50 | 1016.0 |
| 20260831133109 | 78 | 0 | 0.0 | 0.0 | 0.00 | 0.00 | 0.00 | 52 | 1015.7 |
| 20260831131603 | 76 | 0 | 0.0 | 2.0 | 0.00 | 0.00 | 0.00 | 53 | 1015.6 |
| 20260831130105 | 76 | 281 | 2.0 | 4.0 | 0.00 | 0.00 | 0.00 | 54 | 1015.5 |
| 20260831124606 | 75 | 284 | 1.0 | 3.0 | 0.00 | 0.00 | 0.00 | 54 | 1015.2 |
| 20260831123105 | 75 | 0 | 0.0 | 2.0 | 0.00 | 0.00 | 0.00 | 56 | 1015.0 |
| 20260831121632 | 75 | 0 | 0.0 | 0.0 | 0.00 | 0.00 | 0.00 | 55 | 1014.8 |
| 20260831120108 | 76 | 219 | 2.0 | 7.0 | 0.00 | 0.00 | 0.00 | 55 | 1014.5 |
| 20260831114606 | 76 | 135 | 3.0 | 8.0 | 0.00 | 0.00 | 0.00 | 54 | 1014.3 |
| 20260831113110 | 77 | 137 | 6.0 | 10.0 | 0.00 | 0.00 | 0.00 | 54 | 1014.2 |
| 20260831111604 | 76 | 146 | 6.0 | 10.0 | 0.00 | 0.00 | 0.00 | 54 | 1014.4 |
| 20260831110104 | 76 | 136 | 6.0 | 9.0 | 0.00 | 0.00 | 0.00 | 54 | 1014.3 |
| 20260831104608 | 76 | 129 | 6.0 | 9.0 | 0.00 | 0.00 | 0.00 | 55 | 1014.4 |
| 20260831103111 | 76 | 124 | 6.0 | 8.0 | 0.00 | 0.00 | 0.00 | 55 | 1014.3 |
| 20260831101603 | 77 | 134 | 6.0 | 9.0 | 0.00 | 0.00 | 0.00 | 54 | 1014.2 |
| 20260831100105 | 77 | 130 | 7.0 | 9.0 | 0.00 | 0.00 | 0.00 | 54 | 1014.0 |
| 20260831094608 | 74 | 105 | 3.0 | 4.0 | 0.00 | 0.00 | 0.00 | 60 | 1014.1 |
| 20260831093155 | 75 | 81 | 1.0 | 3.0 | 0.00 | 0.00 | 0.00 | 59 | 1014.0 |
| 20260831091601 | 78 | 111 | 5.0 | 7.0 | 0.00 | 0.00 | 0.00 | 52 | 1013.9 |
| 20260831090104 | 80 | 126 | 5.0 | 8.0 | 0.00 | 0.00 | 0.00 | 50 | 1014.1 |
| 20260831084652 | 80 | 144 | 7.0 | 10.0 | 0.00 | 0.00 | 0.00 | 49 | 1014.1 |
| 20260831083108 | 80 | 117 | 7.0 | 13.0 | 0.00 | 0.00 | 0.00 | 49 | 1014.2 |
| 20260831081606 | 80 | 136 | 7.0 | 10.0 | 0.00 | 0.00 | 0.00 | 50 | 1014.2 |
| 20260831080124 | 80 | 117 | 8.0 | 13.0 | 0.00 | 0.00 | 0.00 | 49 | 1014.1 |
| 20260831074603 | 81 | 124 | 9.0 | 11.0 | 0.00 | 0.00 | 0.00 | 49 | 1014.2 |
| 20260831073108 | 82 | 129 | 8.0 | 12.0 | 0.00 | 0.00 | 0.00 | 48 | 1014.3 |
| 20260831071612 | 82 | 126 | 7.0 | 10.0 | 0.00 | 0.00 | 0.00 | 47 | 1014.3 |
| 20260831070107 | 83 | 140 | 9.0 | 12.0 | 0.00 | 0.00 | 0.00 | 46 | 1014.3 |
| 20260831064636 | 83 | 124 | 8.0 | 11.0 | 0.00 | 0.00 | 0.00 | 46 | 1014.4 |
| 20260831063114 | 84 | 159 | 8.0 | 12.0 | 0.00 | 0.00 | 0.00 | 45 | 1014.4 |
| 20260831061605 | 84 | 132 | 10.0 | 13.0 | 0.00 | 0.00 | 0.00 | 44 | 1014.7 |
| 20260831060120 | 85 | 132 | 8.0 | 13.0 | 0.00 | 0.00 | 0.00 | 44 | 1014.7 |
| 20260831054608 | 85 | 128 | 10.0 | 16.0 | 0.00 | 0.00 | 0.00 | 43 | 1014.5 |
| 20260831053106 | 86 | 131 | 12.0 | 16.0 | 0.00 | 0.00 | 0.00 | 43 | 1014.6 |
| 20260831051605 | 86 | 138 | 11.0 | 19.0 | 0.00 | 0.00 | 0.00 | 42 | 1014.5 |
| 20260831050115 | 86 | 141 | 12.0 | 21.0 | 0.00 | 0.00 | 0.00 | 42 | 1014.8 |
| 20260831044609 | 87 | 146 | 15.0 | 22.0 | 0.00 | 0.00 | 0.00 | 41 | 1014.7 |
| 20260831043104 | 87 | 150 | 13.0 | 21.0 | 0.00 | 0.00 | 0.00 | 40 | 1014.5 |
| 20260831041606 | 88 | 138 | 11.0 | 24.0 | 0.00 | 0.00 | 0.00 | 37 | 1014.3 |
| 20260831040107 | 88 | 141 | 13.0 | 19.0 | 0.00 | 0.00 | 0.00 | 36 | 1014.1 |
| 20260831034612 | 89 | 139 | 13.0 | 20.0 | 0.00 | 0.00 | 0.00 | 35 | 1014.1 |
| 20260831033101 | 90 | 140 | 14.0 | 21.0 | 0.00 | 0.00 | 0.00 | 34 | 1013.8 |
| 20260831031600 | 90 | 129 | 13.0 | 19.0 | 0.00 | 0.00 | 0.00 | 33 | 1013.6 |
| 20260831030106 | 91 | 121 | 13.0 | 20.0 | 0.00 | 0.00 | 0.00 | 32 | 1013.4 |
| 20260831024609 | 91 | 126 | 15.0 | 21.0 | 0.00 | 0.00 | 0.00 | 32 | 1013.0 |
| 20260831023104 | 91 | 123 | 13.0 | 20.0 | 0.00 | 0.00 | 0.00 | 32 | 1012.8 |
| 20260831021606 | 92 | 122 | 12.0 | 19.0 | 0.00 | 0.00 | 0.00 | 31 | 1012.4 |
| 20260831014621 | 93 | 123 | 17.0 | 23.0 | 0.00 | 0.00 | 0.00 | 31 | 1012.0 |
| 20260831013104 | 94 | 130 | 14.0 | 22.0 | 0.00 | 0.00 | 0.00 | 31 | 1011.9 |
| 20260831011605 | 94 | 123 | 12.0 | 19.0 | 0.00 | 0.00 | 0.00 | 31 | 1011.6 |
| 20260831010106 | 93 | 93 | 9.0 | 19.0 | 0.00 | 0.00 | 0.00 | 33 | 1011.5 |
| 20260831004606 | 93 | 87 | 4.0 | 9.0 | 0.00 | 0.00 | 0.00 | 30 | 1011.4 |
| 20260831003101 | 95 | 95 | 4.0 | 9.0 | 0.00 | 0.00 | 0.00 | 30 | 1011.6 |
| 20260831001633 | 96 | 83 | 5.0 | 10.0 | 0.00 | 0.00 | 0.00 | 29 | 1011.2 |
| 20260831000110 | 97 | 88 | 5.0 | 9.0 | 0.00 | 0.00 | 0.00 | 28 | 1011.4 |
| 20260830234611 | 98 | 94 | 5.0 | 12.0 | 0.00 | 0.00 | 0.00 | 27 | 1011.3 |
| 20260830233130 | 98 | 86 | 8.0 | 11.0 | 0.00 | 0.00 | 0.00 | 24 | 1011.4 |
| 20260830231559 | 99 | 103 | 5.0 | 10.0 | 0.00 | 0.00 | 0.00 | 24 | 1011.6 |
| 20260830230120 | 99 | 0 | 3.0 | 12.0 | 0.00 | 0.00 | 0.00 | 23 | 1011.6 |
| 20260830224606 | 100 | 67 | 7.0 | 12.0 | 0.00 | 0.00 | 0.00 | 24 | 1011.8 |
| 20260830223104 | 101 | 94 | 1.0 | 9.0 | 0.00 | 0.00 | 0.00 | 23 | 1011.8 |
| 20260830221604 | 101 | 43 | 4.0 | 12.0 | 0.00 | 0.00 | 0.00 | 21 | 1012.0 |
| 20260830220107 | 101 | 0 | 0.0 | 8.0 | 0.00 | 0.00 | 0.00 | 21 | 1012.3 |
| 20260830214559 | 100 | 0 | 0.0 | 6.0 | 0.00 | 0.00 | 0.00 | 21 | 1012.3 |
| 20260830213105 | 101 | 34 | 5.0 | 11.0 | 0.00 | 0.00 | 0.00 | 22 | 1012.7 |
| 20260830211606 | 101 | 177 | 2.0 | 9.0 | 0.00 | 0.00 | 0.00 | 22 | 1012.8 |
| 20260830210107 | 100 | 119 | 7.0 | 12.0 | 0.00 | 0.00 | 0.00 | 23 | 1013.1 |
| 20260830204605 | 100 | 98 | 4.0 | 11.0 | 0.00 | 0.00 | 0.00 | 23 | 1013.4 |
| 20260830203107 | 100 | 9 | 6.0 | 14.0 | 0.00 | 0.00 | 0.00 | 24 | 1013.6 |
| 20260830201606 | 99 | 67 | 1.0 | 12.0 | 0.00 | 0.00 | 0.00 | 25 | 1013.9 |
| 20260830200100 | 99 | 205 | 2.0 | 9.0 | 0.00 | 0.00 | 0.00 | 24 | 1014.1 |
| 20260830194602 | 99 | 118 | 5.0 | 14.0 | 0.00 | 0.00 | 0.00 | 24 | 1014.4 |
| 20260830193105 | 99 | 135 | 3.0 | 10.0 | 0.00 | 0.00 | 0.00 | 25 | 1014.7 |
| 20260830191609 | 98 | 79 | 6.0 | 15.0 | 0.00 | 0.00 | 0.00 | 27 | 1014.8 |
| 20260830184600 | 97 | 83 | 6.0 | 15.0 | 0.00 | 0.00 | 0.00 | 28 | 1015.4 |
| 20260830183110 | 97 | 74 | 8.0 | 13.0 | 0.00 | 0.00 | 0.00 | 30 | 1015.8 |
| 20260830181559 | 97 | 84 | 6.0 | 12.0 | 0.00 | 0.00 | 0.00 | 29 | 1015.8 |
| 20260830180110 | 96 | 138 | 7.0 | 12.0 | 0.00 | 0.00 | 0.00 | 31 | 1016.1 |
| 20260830174616 | 96 | 0 | 1.0 | 15.0 | 0.00 | 0.00 | 0.00 | 31 | 1016.3 |
| 20260830173105 | 95 | 331 | 4.0 | 10.0 | 0.00 | 0.00 | 0.00 | 32 | 1016.4 |
| 20260830171607 | 94 | 69 | 4.0 | 11.0 | 0.00 | 0.00 | 0.00 | 33 | 1016.7 |
| 20260830170106 | 94 | 0 | 2.0 | 9.0 | 0.00 | 0.00 | 0.00 | 34 | 1016.7 |
| 20260830164605 | 93 | 53 | 4.0 | 9.0 | 0.00 | 0.00 | 0.00 | 34 | 1016.9 |
| 20260830163107 | 93 | 55 | 4.0 | 9.0 | 0.00 | 0.00 | 0.00 | 36 | 1016.8 |
| 20260830161606 | 93 | 89 | 3.0 | 7.0 | 0.00 | 0.00 | 0.00 | 35 | 1016.8 |
| 20260830160117 | 92 | 72 | 0.0 | 3.0 | 0.00 | 0.00 | 0.00 | 37 | 1016.8 |
| 20260830154605 | 91 | 63 | 0.0 | 6.0 | 0.00 | 0.00 | 0.00 | 37 | 1016.8 |
| 20260830153108 | 92 | 0 | 0.0 | 3.0 | 0.00 | 0.00 | 0.00 | 36 | 1016.8 |
| 20260830151607 | 91 | 0 | 1.0 | 4.0 | 0.00 | 0.00 | 0.00 | 37 | 1016.9 |
| 20260830150119 | 91 | 0 | 0.0 | 0.0 | 0.00 | 0.00 | 0.00 | 37 | 1016.8 |
| 20260830144606 | 90 | 0 | 0.0 | 1.0 | 0.00 | 0.00 | 0.00 | 39 | 1016.1 |
| 20260830143057 | 89 | 0 | 0.0 | 0.0 | 0.00 | 0.00 | 0.00 | 40 | 1016.2 |